Culdrose, United Kingdom

5:06 AM BST on August 21, 2017 (GMT +0100)
Culdrose Navy

Weather History for EGDR - July, 2013

Change the Weather History Date:

Thursday, July 4, 2013

  Actual Average Record
Temperature  
Mean Temperature 58 °F -  
Max Temperature 63 °F 63 °F 71 °F (2006)
Min Temperature 53 °F 53 °F 48 °F (2008)
Degree Days  
Heating Degree Days 7    
Growing Degree Days 8 (Base 50)    
Moisture  
Dew Point 55 °F    
Average Humidity 91    
Maximum Humidity 100    
Minimum Humidity 71    
Precipitation  
Precipitation 0.00 in - - ()
Sea Level Pressure  
Sea Level Pressure 30.18 in    
Wind  
Wind Speed 10 mph ()    
Max Wind Speed 17 mph    
Max Gust Speed -    
Visibility 2.3 miles    
Events Fog , Rain    
Averages and records for this station are not official NWS values.
T = Trace of Precipitation, MM = Missing Value Source: Averaged Metar Reports

Daily Weather History Graph

Daily Weather History Graph

Search for Another Location

Airport or City:

Trip Planner

Search our weather history database for the weather conditions in past years. The results will help you decide how hot, cold, wet, or windy it might be!

Date:

Astronomy

Jul. 04, 2013 Rise Set
Actual Time 5:17 AM BST 9:32 PM BST
Civil Twilight 4:33 AM BST 10:16 PM BST
Nautical Twilight 3:30 AM BST 11:19 PM BST
Astronomical Twilight 1:57 AM BST 12:53 AM BST
Moon 2:35 AM BST (7/4) 6:17 PM BST (7/4)
Length of Visible Light 17h 42m
Length of Day
16h 14m
Waning Crescent, 13% of the Moon is Illuminated
Jul 4
Waning Crescent
Jul 8
New
Jul 16
First Quarter
Jul 22
Full
Jul 29
Last Quarter

Hourly Weather History & Observations

Time (BST) Temp. Dew Point Humidity Pressure Visibility Wind Dir Wind Speed Gust Speed Precip Events Conditions
12:50 AM 56 °F 56 °F 98% 30.09 in 0 mi West 11.5 mph - - Fog Heavy Fog
12:50 AM 55.4 °F 55.4 °F 100% 30.06 in 0.1 mi West 11.5 mph - N/A Fog Fog
1:50 AM 55.4 °F 55.4 °F 100% 30.06 in 0.1 mi West 8.1 mph - N/A Fog Fog
2:50 AM 55.4 °F 55.4 °F 100% 30.06 in 0.1 mi WSW 8.1 mph - N/A Fog Fog
3:50 AM 56 °F 56 °F 99% 30.09 in 0 mi West 8.1 mph - - Fog Heavy Fog
3:50 AM 55.4 °F 55.4 °F 100% 30.06 in 0.1 mi West 8.1 mph - N/A Fog Fog
4:50 AM 57.2 °F 55.4 °F 94% 30.06 in 0.1 mi WSW 13.8 mph - N/A   Light Drizzle
5:50 AM 57.2 °F 55.4 °F 94% 30.09 in 0.0 mi WSW 11.5 mph - N/A Fog Fog
6:50 AM 56 °F 55 °F 96% 30.10 in 0 mi WSW 15.0 mph - - Fog Heavy Fog
6:50 AM 55.4 °F 55.4 °F 100% 30.09 in 0.1 mi WSW 15.0 mph - N/A Fog Fog
7:50 AM 55.4 °F 55.4 °F 100% 30.12 in 0.1 mi WSW 17.3 mph - N/A   Light Drizzle
8:50 AM 55.4 °F 55.4 °F 100% 30.12 in 0.2 mi WSW 12.7 mph - N/A Fog Fog
9:50 AM 56 °F 56 °F 100% 30.16 in 0 mi WSW 12.7 mph - - Fog Heavy Fog
9:50 AM 57.2 °F 55.4 °F 94% 30.15 in 0.2 mi WSW 12.7 mph - N/A Fog Fog
10:50 AM 57.2 °F 57.2 °F 100% 30.15 in 0.2 mi West 9.2 mph - N/A Fog Fog
11:50 AM 57.2 °F 57.2 °F 100% 30.18 in 0.2 mi West 10.4 mph - N/A Fog Fog
12:44 PM 59.0 °F 57.2 °F 94% 30.18 in 1.0 mi West 10.4 mph - N/A   Light Drizzle
12:50 PM 58 °F 58 °F 98% 30.20 in 1 mi West 10.4 mph - - Rain Light Drizzle
12:50 PM 57.2 °F 57.2 °F 100% 30.18 in 1.0 mi West 10.4 mph - N/A   Light Drizzle
1:10 PM 59.0 °F 59.0 °F 100% 30.18 in 1.9 mi West 10.4 mph - N/A Fog Fog
1:50 PM 60.8 °F 59.0 °F 94% 30.21 in 4.3 mi West 10.4 mph - N/A   Scattered Clouds
2:06 PM 60.8 °F 59.0 °F 94% 30.21 in 4.3 mi WSW 13.8 mph - N/A   Haze
2:50 PM 62.6 °F 57.2 °F 82% 30.21 in 4.3 mi WSW 13.8 mph - N/A   Haze
3:50 PM 63 °F 56 °F 71% 30.23 in 4 mi West 11.5 mph - -   Haze
3:50 PM 62.6 °F 55.4 °F 77% 30.21 in 4.3 mi West 11.5 mph - N/A   Haze
4:50 PM 62.6 °F 55.4 °F 77% 30.24 in 4.3 mi West 13.8 mph - N/A   Haze
5:50 PM 62.6 °F 53.6 °F 72% 30.24 in 5.0 mi West 9.2 mph - N/A   Haze
6:50 PM 61 °F 54 °F 71% 30.27 in 5 mi West 10.4 mph - -   Haze
6:50 PM 60.8 °F 53.6 °F 77% 30.27 in 5.0 mi West 10.4 mph - N/A   Haze
7:50 PM 60.8 °F 51.8 °F 72% 30.27 in 5.0 mi NW 9.2 mph - N/A   Haze
8:50 PM 57.2 °F 51.8 °F 82% 30.30 in 5.0 mi WNW 8.1 mph - N/A   Haze
9:50 PM 55 °F 52 °F 88% 30.32 in 6 mi WNW 8.1 mph - -   Haze
9:50 PM 55.4 °F 51.8 °F 88% 30.30 in 6.2 mi WNW 8.1 mph - N/A   Haze
10:50 PM 53.6 °F 51.8 °F 94% 30.33 in 6.2 mi WNW 9.2 mph - N/A   Haze
11:50 PM 53.6 °F 51.8 °F 94% 30.33 in 5.0 mi WNW 5.8 mph - N/A   Haze